382P/Larson (2022)

Japanese version
Home page
Updated on September 28, 2019

---------------------------------------------------------------------

* Profile

Designation 382P/2019 K3
Recovery Date May 29 and 31, 2019
Magnitude 21.9 mag, 22.0 mag
Recoverer E. Schwab (Egelsbach, Germany), G. V. Williams (Pan-STARRS1 survey)

* Orbital Elements

Epoch 2022 Mar. 2.0 TT = JDT 2459640.5
T 2022 Feb. 17.41718 TT                                 MPCW
q   4.4197574            (2000.0)            P               Q
n   0.05987738     Peri.  170.98593     +0.96486037     +0.26229019
a   6.4708426      Node   173.74093     -0.24919151     +0.93240310
e   0.3169734      Incl.    8.31059     -0.08335502     +0.24865298
P  16.46
From 226 observations 2007 Sept. 4-2019 June 3, mean residual 0".6.

* Magnitudes Graph

        m1 = 9.0 + 5 log d + 10.0 log r

---------------------------------------------------------------------

The orbital elements are published on M.P.E.C. 2019-L42.
The magnitudes graphs are made with Comet for Windows.

---------------------------------------------------------------------

Copyright(C) Seiichi Yoshida (comet@aerith.net). All rights reserved.